,,PressureMeas_1m,,PRMeasQMR101_1,,RHStat155_1m_1,,SRMeasQMS101R_1m,,TAStat155_1m_1,,GenWind_1,,GenWind_1,
2017-09-05, 07:00:06,VALID,917.705,VALID,0.0,VALID,97.67,VALID,65.015,VALID,20.769,VALID,134.0,VALID,0.15,
2017-09-05, 07:01:06,VALID,917.72,VALID,0.0,VALID,97.658,VALID,66.87,VALID,20.798,VALID,158.0,VALID,0.528,
2017-09-05, 07:02:06,VALID,917.73,VALID,0.0,VALID,97.401,VALID,66.853,VALID,20.777,VALID,154.0,VALID,0.504,
2017-09-05, 07:03:06,VALID,917.741,VALID,0.0,VALID,97.514,VALID,69.34,VALID,20.839,VALID,172.0,VALID,0.587,
2017-09-05, 07:04:06,VALID,917.747,VALID,0.0,VALID,97.413,VALID,70.373,VALID,20.842,VALID,153.0,VALID,0.948,
2017-09-05, 07:05:06,VALID,917.765,VALID,0.0,VALID,97.271,VALID,70.156,VALID,20.818,VALID,158.0,VALID,0.585,
2017-09-05, 07:06:06,VALID,917.771,VALID,0.0,VALID,97.224,VALID,70.83,VALID,20.802,VALID,158.0,VALID,0.985,
2017-09-05, 07:07:06,VALID,917.767,VALID,0.0,VALID,97.141,VALID,75.804,VALID,20.775,VALID,148.0,VALID,0.363,
2017-09-05, 07:08:06,VALID,917.783,VALID,0.0,VALID,97.176,VALID,85.551,VALID,20.771,VALID,112.0,VALID,0.724,
2017-09-05, 07:09:06,VALID,917.785,VALID,0.0,VALID,97.232,VALID,96.867,VALID,20.751,VALID,141.0,VALID,0.44,
2017-09-05, 07:10:06,VALID,917.794,VALID,0.0,VALID,97.102,VALID,109.684,VALID,20.736,VALID,128.0,VALID,0.294,
2017-09-05, 07:11:06,VALID,917.827,VALID,0.0,VALID,97.189,VALID,118.627,VALID,20.769,VALID,103.0,VALID,0.147,
2017-09-05, 07:12:06,VALID,917.833,VALID,0.0,VALID,96.947,VALID,124.029,VALID,20.758,VALID,79.0,VALID,0.055,
2017-09-05, 07:13:06,VALID,917.834,VALID,0.0,VALID,96.859,VALID,126.388,VALID,20.814,VALID,79.0,VALID,0.0,
2017-09-05, 07:14:06,VALID,917.845,VALID,0.0,VALID,96.883,VALID,129.103,VALID,20.899,VALID,79.0,VALID,0.0,
2017-09-05, 07:15:06,VALID,917.837,VALID,0.0,VALID,96.659,VALID,133.025,VALID,20.957,VALID,80.0,VALID,0.0,
2017-09-05, 07:16:06,VALID,917.833,VALID,0.0,VALID,96.307,VALID,129.215,VALID,20.999,VALID,138.0,VALID,0.0,
2017-09-05, 07:17:06,VALID,917.826,VALID,0.0,VALID,96.032,VALID,119.998,VALID,21.074,VALID,187.0,VALID,0.638,
2017-09-05, 07:18:06,VALID,917.821,VALID,0.0,VALID,95.574,VALID,108.708,VALID,21.123,VALID,184.0,VALID,0.615,
2017-09-05, 07:19:06,VALID,917.821,VALID,0.0,VALID,94.743,VALID,103.312,VALID,21.138,VALID,195.0,VALID,0.293,
2017-09-05, 07:20:06,VALID,917.831,VALID,0.0,VALID,94.189,VALID,105.51,VALID,21.157,VALID,195.0,VALID,0.005,
2017-09-05, 07:21:06,VALID,917.832,VALID,0.0,VALID,93.884,VALID,109.339,VALID,21.182,VALID,195.0,VALID,0.0,
2017-09-05, 07:22:06,VALID,917.842,VALID,0.0,VALID,93.611,VALID,108.894,VALID,21.212,VALID,199.0,VALID,0.0,
2017-09-05, 07:23:06,VALID,917.864,VALID,0.0,VALID,93.687,VALID,102.465,VALID,21.263,VALID,248.0,VALID,0.001,
2017-09-05, 07:24:06,VALID,917.892,VALID,0.0,VALID,93.703,VALID,96.117,VALID,21.315,VALID,292.0,VALID,0.073,
2017-09-05, 07:25:06,VALID,917.909,VALID,0.0,VALID,93.544,VALID,96.537,VALID,21.364,VALID,334.0,VALID,0.026,
2017-09-05, 07:26:06,VALID,917.947,VALID,0.0,VALID,92.973,VALID,101.224,VALID,21.405,VALID,335.0,VALID,0.0,
2017-09-05, 07:27:06,VALID,917.954,VALID,0.0,VALID,93.254,VALID,105.378,VALID,21.465,VALID,335.0,VALID,0.0,
2017-09-05, 07:28:06,VALID,917.983,VALID,0.0,VALID,92.348,VALID,108.546,VALID,21.47,VALID,335.0,VALID,0.0,
2017-09-05, 07:29:06,VALID,917.989,VALID,0.0,VALID,91.728,VALID,111.052,VALID,21.442,VALID,329.0,VALID,0.006,
2017-09-05, 07:30:06,VALID,918.005,VALID,0.0,VALID,93.212,VALID,115.98,VALID,21.47,VALID,209.0,VALID,0.23,
2017-09-05, 07:31:06,VALID,918.018,VALID,0.0,VALID,93.915,VALID,124.24,VALID,21.518,VALID,186.0,VALID,0.346,
2017-09-05, 07:32:06,VALID,918.042,VALID,0.0,VALID,93.193,VALID,132.998,VALID,21.536,VALID,177.0,VALID,0.454,
2017-09-05, 07:33:06,VALID,918.065,VALID,0.0,VALID,92.173,VALID,139.919,VALID,21.558,VALID,188.0,VALID,0.461,
2017-09-05, 07:34:06,VALID,918.083,VALID,0.0,VALID,91.376,VALID,145.626,VALID,21.581,VALID,209.0,VALID,0.049,
2017-09-05, 07:35:06,VALID,918.102,VALID,0.0,VALID,91.362,VALID,148.336,VALID,21.622,VALID,188.0,VALID,0.094,
2017-09-05, 07:36:06,VALID,918.124,VALID,0.0,VALID,90.891,VALID,149.787,VALID,21.619,VALID,184.0,VALID,0.008,
2017-09-05, 07:37:06,VALID,918.146,VALID,0.0,VALID,91.2,VALID,150.538,VALID,21.657,VALID,184.0,VALID,0.0,
2017-09-05, 07:38:06,VALID,918.157,VALID,0.0,VALID,91.761,VALID,149.366,VALID,21.723,VALID,184.0,VALID,0.0,
2017-09-05, 07:39:06,VALID,918.191,VALID,0.0,VALID,91.926,VALID,146.506,VALID,21.796,VALID,184.0,VALID,0.0,
2017-09-05, 07:40:06,VALID,918.219,VALID,0.0,VALID,91.167,VALID,144.215,VALID,21.869,VALID,184.0,VALID,0.0,
2017-09-05, 07:41:06,VALID,918.248,VALID,0.0,VALID,92.3,VALID,142.299,VALID,21.941,VALID,210.0,VALID,0.095,
2017-09-05, 07:42:06,VALID,918.281,VALID,0.0,VALID,91.845,VALID,137.01,VALID,21.871,VALID,243.0,VALID,0.118,
2017-09-05, 07:43:06,VALID,918.329,VALID,0.0,VALID,92.133,VALID,123.986,VALID,21.794,VALID,347.0,VALID,0.032,
2017-09-05, 07:44:06,VALID,918.362,VALID,0.0,VALID,92.724,VALID,106.141,VALID,21.794,VALID,348.0,VALID,0.0,
2017-09-05, 07:45:06,VALID,918.397,VALID,0.0,VALID,92.606,VALID,90.883,VALID,21.836,VALID,348.0,VALID,0.0,
2017-09-05, 07:46:06,VALID,918.43,VALID,0.0,VALID,91.696,VALID,81.9,VALID,21.818,VALID,329.0,VALID,0.0,
2017-09-05, 07:47:06,VALID,918.464,VALID,0.0,VALID,92.8,VALID,77.752,VALID,21.812,VALID,310.0,VALID,0.0,
2017-09-05, 07:48:06,VALID,918.486,VALID,0.0,VALID,92.747,VALID,76.712,VALID,21.771,VALID,264.0,VALID,0.051,
2017-09-05, 07:49:06,VALID,918.506,VALID,0.0,VALID,91.318,VALID,75.795,VALID,21.687,VALID,247.0,VALID,0.182,
2017-09-05, 07:50:06,VALID,918.538,VALID,0.0,VALID,90.856,VALID,72.537,VALID,21.626,VALID,246.0,VALID,0.027,
2017-09-05, 07:51:06,VALID,918.562,VALID,0.0,VALID,91.048,VALID,66.089,VALID,21.598,VALID,246.0,VALID,0.0,
2017-09-05, 07:52:06,VALID,918.599,VALID,0.0,VALID,92.115,VALID,58.623,VALID,21.622,VALID,246.0,VALID,0.0,
2017-09-05, 07:53:06,VALID,918.635,VALID,0.0,VALID,92.448,VALID,53.181,VALID,21.656,VALID,247.0,VALID,0.0,
2017-09-05, 07:54:06,VALID,918.661,VALID,0.0,VALID,92.515,VALID,50.135,VALID,21.653,VALID,253.0,VALID,0.0,
2017-09-05, 07:55:06,VALID,918.686,VALID,0.0,VALID,93.038,VALID,48.661,VALID,21.607,VALID,253.0,VALID,0.0,
2017-09-05, 07:56:06,VALID,918.702,VALID,0.0,VALID,93.502,VALID,47.574,VALID,21.548,VALID,274.0,VALID,0.0,
2017-09-05, 07:57:06,VALID,918.717,VALID,0.0,VALID,94.056,VALID,46.219,VALID,21.506,VALID,303.0,VALID,0.0,
2017-09-05, 07:58:06,VALID,918.729,VALID,0.0,VALID,94.053,VALID,45.168,VALID,21.449,VALID,322.0,VALID,0.134,
2017-09-05, 07:59:06,VALID,918.753,VALID,0.0,VALID,94.354,VALID,45.439,VALID,21.426,VALID,341.0,VALID,0.065,
2017-09-05, 08:00:06,VALID,918.762,VALID,0.0,VALID,94.647,VALID,47.203,VALID,21.408,VALID,360.0,VALID,0.27,
2017-09-05, 08:01:06,VALID,918.775,VALID,0.0,VALID,94.939,VALID,49.313,VALID,21.39,VALID,360.0,VALID,0.085,
2017-09-05, 08:02:06,VALID,918.776,VALID,0.0,VALID,95.289,VALID,51.164,VALID,21.382,VALID,360.0,VALID,0.101,
2017-09-05, 08:03:06,VALID,918.797,VALID,0.0,VALID,95.497,VALID,53.135,VALID,21.383,VALID,360.0,VALID,0.002,
2017-09-05, 08:04:06,VALID,918.797,VALID,0.0,VALID,95.481,VALID,55.465,VALID,21.379,VALID,360.0,VALID,0.014,
2017-09-05, 08:05:06,VALID,918.819,VALID,0.0,VALID,95.852,VALID,58.57,VALID,21.422,VALID,17.0,VALID,0.156,
2017-09-05, 08:06:06,VALID,918.825,VALID,0.0,VALID,95.752,VALID,63.491,VALID,21.434,VALID,27.0,VALID,0.175,
2017-09-05, 08:07:06,VALID,918.841,VALID,0.0,VALID,95.527,VALID,70.156,VALID,21.422,VALID,22.0,VALID,0.051,
2017-09-05, 08:08:06,VALID,918.852,VALID,0.0,VALID,95.591,VALID,78.18,VALID,21.432,VALID,25.0,VALID,0.087,
2017-09-05, 08:09:06,VALID,918.859,VALID,0.0,VALID,94.903,VALID,86.9,VALID,21.407,VALID,26.0,VALID,0.025,
2017-09-05, 08:10:06,VALID,918.88,VALID,0.0,VALID,94.52,VALID,93.791,VALID,21.412,VALID,28.0,VALID,0.109,
2017-09-05, 08:11:06,VALID,918.891,VALID,0.0,VALID,94.55,VALID,99.558,VALID,21.441,VALID,28.0,VALID,0.078,
2017-09-05, 08:12:06,VALID,918.897,VALID,0.0,VALID,94.238,VALID,106.489,VALID,21.465,VALID,35.0,VALID,0.079,
2017-09-05, 08:13:06,VALID,918.92,VALID,0.0,VALID,94.496,VALID,113.558,VALID,21.519,VALID,41.0,VALID,0.15,
2017-09-05, 08:14:06,VALID,918.931,VALID,0.0,VALID,93.728,VALID,121.143,VALID,21.535,VALID,45.0,VALID,0.576,
2017-09-05, 08:15:06,VALID,918.945,VALID,0.0,VALID,93.227,VALID,129.896,VALID,21.503,VALID,36.0,VALID,0.38,
2017-09-05, 08:16:06,VALID,918.96,VALID,0.0,VALID,93.834,VALID,139.108,VALID,21.514,VALID,53.0,VALID,0.57,
2017-09-05, 08:17:06,VALID,918.964,VALID,0.0,VALID,93.232,VALID,147.876,VALID,21.513,VALID,41.0,VALID,0.49,
2017-09-05, 08:18:06,VALID,918.978,VALID,0.0,VALID,93.508,VALID,157.181,VALID,21.559,VALID,11.0,VALID,0.43,
2017-09-05, 08:19:06,VALID,919.001,VALID,0.0,VALID,92.828,VALID,165.903,VALID,21.561,VALID,17.0,VALID,0.241,
2017-09-05, 08:20:06,VALID,919.009,VALID,0.0,VALID,93.285,VALID,171.949,VALID,21.565,VALID,28.0,VALID,0.462,
2017-09-05, 08:21:06,VALID,919.03,VALID,0.0,VALID,93.063,VALID,176.735,VALID,21.542,VALID,21.0,VALID,0.389,
2017-09-05, 08:22:06,VALID,919.045,VALID,0.0,VALID,93.543,VALID,180.059,VALID,21.554,VALID,16.0,VALID,0.148,
2017-09-05, 08:23:06,VALID,919.076,VALID,0.0,VALID,93.726,VALID,182.188,VALID,21.609,VALID,57.0,VALID,0.618,
2017-09-05, 08:24:06,VALID,919.084,VALID,0.0,VALID,92.795,VALID,186.155,VALID,21.612,VALID,61.0,VALID,0.057,
2017-09-05, 08:25:06,VALID,919.089,VALID,0.0,VALID,93.192,VALID,194.351,VALID,21.669,VALID,61.0,VALID,0.009,
2017-09-05, 08:26:06,VALID,919.109,VALID,0.0,VALID,92.644,VALID,199.308,VALID,21.718,VALID,62.0,VALID,0.641,
2017-09-05, 08:27:06,VALID,919.111,VALID,0.0,VALID,92.238,VALID,206.131,VALID,21.73,VALID,80.0,VALID,0.723,
2017-09-05, 08:28:06,VALID,919.106,VALID,0.0,VALID,93.043,VALID,208.967,VALID,21.763,VALID,81.0,VALID,0.851,
2017-09-05, 08:29:06,VALID,919.106,VALID,0.0,VALID,92.034,VALID,198.835,VALID,21.754,VALID,51.0,VALID,0.588,
2017-09-05, 08:30:06,VALID,919.116,VALID,0.0,VALID,92.659,VALID,201.196,VALID,21.823,VALID,52.0,VALID,0.531,
2017-09-05, 08:31:06,VALID,919.132,VALID,0.0,VALID,92.607,VALID,206.804,VALID,21.909,VALID,69.0,VALID,0.343,
2017-09-05, 08:32:06,VALID,919.14,VALID,0.0,VALID,91.925,VALID,211.033,VALID,21.954,VALID,73.0,VALID,0.408,
2017-09-05, 08:33:06,VALID,919.157,VALID,0.0,VALID,91.09,VALID,216.207,VALID,21.925,VALID,57.0,VALID,0.895,
2017-09-05, 08:34:06,VALID,919.176,VALID,0.0,VALID,90.719,VALID,223.391,VALID,21.839,VALID,45.0,VALID,0.333,
2017-09-05, 08:35:06,VALID,919.18,VALID,0.0,VALID,90.94,VALID,231.081,VALID,21.788,VALID,46.0,VALID,0.549,
2017-09-05, 08:36:06,VALID,919.193,VALID,0.0,VALID,91.305,VALID,232.181,VALID,21.813,VALID,33.0,VALID,0.502,
2017-09-05, 08:37:06,VALID,919.199,VALID,0.0,VALID,91.512,VALID,231.294,VALID,21.872,VALID,20.0,VALID,1.103,
2017-09-05, 08:38:06,VALID,919.213,VALID,0.0,VALID,91.43,VALID,253.335,VALID,21.893,VALID,29.0,VALID,0.889,
2017-09-05, 08:39:06,VALID,919.236,VALID,0.0,VALID,91.897,VALID,295.007,VALID,21.954,VALID,43.0,VALID,0.872,
2017-09-05, 08:40:06,VALID,919.26,VALID,0.0,VALID,91.709,VALID,280.506,VALID,22.0,VALID,31.0,VALID,1.053,
2017-09-05, 08:41:06,VALID,919.277,VALID,0.0,VALID,90.941,VALID,263.16,VALID,21.998,VALID,22.0,VALID,0.626,
2017-09-05, 08:42:06,VALID,919.318,VALID,0.0,VALID,91.477,VALID,250.683,VALID,22.069,VALID,33.0,VALID,0.536,
2017-09-05, 08:43:06,VALID,919.324,VALID,0.0,VALID,91.879,VALID,244.365,VALID,22.18,VALID,23.0,VALID,1.059,
2017-09-05, 08:44:06,VALID,919.357,VALID,0.0,VALID,90.389,VALID,245.993,VALID,22.199,VALID,2.0,VALID,1.055,
2017-09-05, 08:45:06,VALID,919.381,VALID,0.0,VALID,90.198,VALID,263.608,VALID,22.117,VALID,360.0,VALID,0.741,
2017-09-05, 08:46:06,VALID,919.39,VALID,0.0,VALID,91.07,VALID,314.353,VALID,22.134,VALID,1.0,VALID,0.03,
2017-09-05, 08:47:06,VALID,919.397,VALID,0.0,VALID,90.816,VALID,354.141,VALID,22.244,VALID,342.0,VALID,0.004,
2017-09-05, 08:48:06,VALID,919.384,VALID,0.0,VALID,90.324,VALID,325.938,VALID,22.416,VALID,297.0,VALID,0.0,
2017-09-05, 08:49:06,VALID,919.373,VALID,0.0,VALID,89.562,VALID,323.73,VALID,22.618,VALID,296.0,VALID,0.003,
2017-09-05, 08:50:06,VALID,919.361,VALID,0.0,VALID,89.662,VALID,340.523,VALID,22.797,VALID,256.0,VALID,0.459,
2017-09-05, 08:51:06,VALID,919.348,VALID,0.0,VALID,90.326,VALID,339.76,VALID,22.762,VALID,266.0,VALID,0.846,
2017-09-05, 08:52:06,VALID,919.345,VALID,0.0,VALID,89.256,VALID,376.198,VALID,22.556,VALID,288.0,VALID,0.717,
2017-09-05, 08:53:06,VALID,919.331,VALID,0.0,VALID,89.365,VALID,395.567,VALID,22.439,VALID,319.0,VALID,0.138,
2017-09-05, 08:54:06,VALID,919.317,VALID,0.0,VALID,90.876,VALID,414.358,VALID,22.495,VALID,33.0,VALID,0.155,
2017-09-05, 08:55:06,VALID,919.314,VALID,0.0,VALID,90.607,VALID,469.113,VALID,22.717,VALID,349.0,VALID,0.201,
2017-09-05, 08:56:06,VALID,919.289,VALID,0.0,VALID,89.072,VALID,446.754,VALID,22.976,VALID,227.0,VALID,0.073,
2017-09-05, 08:57:06,VALID,919.284,VALID,0.0,VALID,88.022,VALID,415.201,VALID,23.164,VALID,275.0,VALID,0.314,
2017-09-05, 08:58:06,VALID,919.284,VALID,0.0,VALID,88.756,VALID,348.603,VALID,23.29,VALID,319.0,VALID,0.243,
2017-09-05, 08:59:06,VALID,919.292,VALID,0.0,VALID,85.114,VALID,331.348,VALID,23.278,VALID,304.0,VALID,0.455,
2017-09-05, 09:00:06,VALID,919.307,VALID,0.0,VALID,85.109,VALID,327.796,VALID,23.139,VALID,302.0,VALID,0.483,
2017-09-05, 09:01:06,VALID,919.322,VALID,0.0,VALID,85.815,VALID,335.611,VALID,23.087,VALID,4.0,VALID,0.52,
2017-09-05, 09:02:06,VALID,919.324,VALID,0.0,VALID,85.411,VALID,355.045,VALID,23.181,VALID,348.0,VALID,0.313,
2017-09-05, 09:03:06,VALID,919.327,VALID,0.0,VALID,83.641,VALID,386.666,VALID,23.211,VALID,282.0,VALID,0.349,
2017-09-05, 09:04:06,VALID,919.325,VALID,0.0,VALID,84.671,VALID,400.896,VALID,23.181,VALID,321.0,VALID,0.073,
2017-09-05, 09:05:06,VALID,919.319,VALID,0.0,VALID,85.5,VALID,445.615,VALID,23.326,VALID,7.0,VALID,0.857,
2017-09-05, 09:06:06,VALID,919.315,VALID,0.0,VALID,84.739,VALID,399.915,VALID,23.343,VALID,5.0,VALID,0.857,
2017-09-05, 09:07:06,VALID,919.318,VALID,0.0,VALID,84.984,VALID,352.401,VALID,23.354,VALID,14.0,VALID,0.507,
2017-09-05, 09:08:06,VALID,919.313,VALID,0.0,VALID,84.225,VALID,356.081,VALID,23.38,VALID,26.0,VALID,0.29,
2017-09-05, 09:09:06,VALID,919.323,VALID,0.0,VALID,83.658,VALID,365.618,VALID,23.446,VALID,36.0,VALID,0.284,
2017-09-05, 09:10:06,VALID,919.323,VALID,0.0,VALID,84.082,VALID,427.028,VALID,23.629,VALID,342.0,VALID,0.255,
2017-09-05, 09:11:06,VALID,919.309,VALID,0.0,VALID,82.828,VALID,503.082,VALID,23.657,VALID,348.0,VALID,0.037,
2017-09-05, 09:12:06,VALID,919.3,VALID,0.0,VALID,83.39,VALID,396.031,VALID,23.746,VALID,323.0,VALID,0.332,
2017-09-05, 09:13:06,VALID,919.298,VALID,0.0,VALID,82.355,VALID,294.034,VALID,23.654,VALID,300.0,VALID,0.527,
2017-09-05, 09:14:06,VALID,919.302,VALID,0.0,VALID,83.429,VALID,277.8,VALID,23.592,VALID,343.0,VALID,0.433,
2017-09-05, 09:15:06,VALID,919.302,VALID,0.0,VALID,83.733,VALID,275.708,VALID,23.532,VALID,301.0,VALID,0.374,
2017-09-05, 09:16:06,VALID,919.313,VALID,0.0,VALID,81.63,VALID,266.187,VALID,23.373,VALID,281.0,VALID,0.798,
2017-09-05, 09:17:06,VALID,919.317,VALID,0.0,VALID,83.071,VALID,262.938,VALID,23.216,VALID,324.0,VALID,0.254,
2017-09-05, 09:18:06,VALID,919.314,VALID,0.0,VALID,84.572,VALID,258.729,VALID,23.195,VALID,327.0,VALID,0.071,
2017-09-05, 09:19:06,VALID,919.301,VALID,0.0,VALID,83.515,VALID,251.138,VALID,23.252,VALID,356.0,VALID,0.419,
2017-09-05, 09:20:06,VALID,919.29,VALID,0.0,VALID,83.84,VALID,244.154,VALID,23.254,VALID,335.0,VALID,0.479,
2017-09-05, 09:21:06,VALID,919.272,VALID,0.0,VALID,81.846,VALID,245.781,VALID,23.195,VALID,301.0,VALID,0.179,
2017-09-05, 09:22:06,VALID,919.263,VALID,0.0,VALID,82.699,VALID,248.968,VALID,23.155,VALID,286.0,VALID,0.232,
2017-09-05, 09:23:06,VALID,919.258,VALID,0.0,VALID,83.684,VALID,248.425,VALID,23.153,VALID,302.0,VALID,0.327,
2017-09-05, 09:24:06,VALID,919.244,VALID,0.0,VALID,83.614,VALID,250.502,VALID,23.168,VALID,297.0,VALID,0.213,
2017-09-05, 09:25:06,VALID,919.221,VALID,0.0,VALID,83.351,VALID,255.366,VALID,23.211,VALID,295.0,VALID,0.143,
2017-09-05, 09:26:06,VALID,919.215,VALID,0.0,VALID,83.259,VALID,255.154,VALID,23.255,VALID,324.0,VALID,0.239,
2017-09-05, 09:27:06,VALID,919.213,VALID,0.0,VALID,84.873,VALID,255.701,VALID,23.397,VALID,23.0,VALID,0.084,
2017-09-05, 09:28:06,VALID,919.206,VALID,0.0,VALID,82.89,VALID,257.678,VALID,23.545,VALID,349.0,VALID,0.021,
2017-09-05, 09:29:06,VALID,919.201,VALID,0.0,VALID,82.36,VALID,256.556,VALID,23.64,VALID,280.0,VALID,0.009,
2017-09-05, 09:30:06,VALID,919.187,VALID,0.0,VALID,82.311,VALID,253.972,VALID,23.712,VALID,264.0,VALID,0.04,
2017-09-05, 09:31:06,VALID,919.16,VALID,0.0,VALID,81.953,VALID,258.257,VALID,23.667,VALID,306.0,VALID,0.54,
2017-09-05, 09:32:06,VALID,919.143,VALID,0.0,VALID,82.613,VALID,318.141,VALID,23.446,VALID,281.0,VALID,0.321,
2017-09-05, 09:33:06,VALID,919.122,VALID,0.0,VALID,83.975,VALID,346.895,VALID,23.349,VALID,253.0,VALID,0.667,
2017-09-05, 09:34:06,VALID,919.109,VALID,0.0,VALID,84.582,VALID,307.436,VALID,23.224,VALID,259.0,VALID,0.809,
2017-09-05, 09:35:06,VALID,919.092,VALID,0.0,VALID,84.751,VALID,302.22,VALID,23.102,VALID,252.0,VALID,0.466,
2017-09-05, 09:36:06,VALID,919.08,VALID,0.0,VALID,86.165,VALID,298.08,VALID,23.131,VALID,250.0,VALID,0.417,
2017-09-05, 09:37:06,VALID,919.081,VALID,0.0,VALID,84.838,VALID,291.659,VALID,23.165,VALID,249.0,VALID,0.469,
2017-09-05, 09:38:06,VALID,919.09,VALID,0.0,VALID,86.072,VALID,291.808,VALID,23.137,VALID,217.0,VALID,0.04,
2017-09-05, 09:39:06,VALID,919.099,VALID,0.0,VALID,86.562,VALID,300.737,VALID,23.228,VALID,249.0,VALID,0.173,
2017-09-05, 09:40:06,VALID,919.111,VALID,0.0,VALID,86.737,VALID,317.058,VALID,23.311,VALID,320.0,VALID,0.396,
2017-09-05, 09:41:06,VALID,919.115,VALID,0.0,VALID,84.178,VALID,329.759,VALID,23.302,VALID,243.0,VALID,0.431,
2017-09-05, 09:42:06,VALID,919.124,VALID,0.0,VALID,85.375,VALID,350.423,VALID,23.267,VALID,258.0,VALID,0.363,
2017-09-05, 09:43:06,VALID,919.111,VALID,0.0,VALID,84.566,VALID,428.961,VALID,23.277,VALID,255.0,VALID,0.421,
2017-09-05, 09:44:06,VALID,919.105,VALID,0.0,VALID,84.938,VALID,465.555,VALID,23.288,VALID,272.0,VALID,0.36,
2017-09-05, 09:45:06,VALID,919.098,VALID,0.0,VALID,85.375,VALID,415.932,VALID,23.355,VALID,285.0,VALID,0.486,
2017-09-05, 09:46:06,VALID,919.092,VALID,0.0,VALID,85.639,VALID,385.442,VALID,23.449,VALID,287.0,VALID,0.383,
2017-09-05, 09:47:06,VALID,919.095,VALID,0.0,VALID,85.116,VALID,371.973,VALID,23.551,VALID,261.0,VALID,0.415,
2017-09-05, 09:48:06,VALID,919.089,VALID,0.0,VALID,84.464,VALID,386.444,VALID,23.589,VALID,283.0,VALID,0.519,
2017-09-05, 09:49:06,VALID,919.111,VALID,0.0,VALID,84.467,VALID,441.61,VALID,23.536,VALID,249.0,VALID,0.936,
2017-09-05, 09:50:06,VALID,919.113,VALID,0.0,VALID,84.241,VALID,434.665,VALID,23.367,VALID,253.0,VALID,0.759,
2017-09-05, 09:51:06,VALID,919.128,VALID,0.0,VALID,85.473,VALID,346.62,VALID,23.303,VALID,241.0,VALID,0.733,
2017-09-05, 09:52:06,VALID,919.135,VALID,0.0,VALID,84.933,VALID,310.091,VALID,23.348,VALID,236.0,VALID,0.734,
2017-09-05, 09:53:06,VALID,919.134,VALID,0.0,VALID,84.45,VALID,298.615,VALID,23.302,VALID,251.0,VALID,0.967,
2017-09-05, 09:54:06,VALID,919.127,VALID,0.0,VALID,84.728,VALID,303.609,VALID,23.215,VALID,244.0,VALID,0.703,
2017-09-05, 09:55:06,VALID,919.109,VALID,0.0,VALID,85.469,VALID,327.946,VALID,23.199,VALID,223.0,VALID,0.602,
2017-09-05, 09:56:06,VALID,919.086,VALID,0.0,VALID,85.324,VALID,403.873,VALID,23.302,VALID,209.0,VALID,0.602,
2017-09-05, 09:57:06,VALID,919.082,VALID,0.0,VALID,84.719,VALID,514.412,VALID,23.45,VALID,205.0,VALID,0.884,
2017-09-05, 09:58:06,VALID,919.056,VALID,0.0,VALID,84.089,VALID,809.512,VALID,23.577,VALID,224.0,VALID,0.639,
2017-09-05, 09:59:06,VALID,919.054,VALID,0.0,VALID,83.636,VALID,805.025,VALID,23.731,VALID,238.0,VALID,0.482,
2017-09-05, 10:00:06,VALID,919.053,VALID,0.0,VALID,82.982,VALID,708.688,VALID,23.935,VALID,219.0,VALID,0.288,
2017-09-05, 10:01:06,VALID,919.048,VALID,0.0,VALID,83.555,VALID,623.65,VALID,24.117,VALID,233.0,VALID,0.751,
2017-09-05, 10:02:06,VALID,919.051,VALID,0.0,VALID,82.184,VALID,722.119,VALID,24.18,VALID,223.0,VALID,0.963,
2017-09-05, 10:03:06,VALID,919.045,VALID,0.0,VALID,81.655,VALID,753.345,VALID,24.152,VALID,257.0,VALID,0.24,
2017-09-05, 10:04:06,VALID,919.021,VALID,0.0,VALID,81.52,VALID,624.245,VALID,24.155,VALID,200.0,VALID,0.246,
2017-09-05, 10:05:06,VALID,919.007,VALID,0.0,VALID,81.755,VALID,424.2,VALID,24.058,VALID,144.0,VALID,0.11,
2017-09-05, 10:06:06,VALID,919.009,VALID,0.0,VALID,82.898,VALID,292.885,VALID,24.212,VALID,131.0,VALID,0.021,
2017-09-05, 10:07:06,VALID,919.001,VALID,0.0,VALID,82.908,VALID,291.048,VALID,24.475,VALID,320.0,VALID,0.339,
2017-09-05, 10:08:06,VALID,919.006,VALID,0.0,VALID,80.981,VALID,293.682,VALID,24.577,VALID,234.0,VALID,0.85,
2017-09-05, 10:09:06,VALID,919.0,VALID,0.0,VALID,81.426,VALID,300.727,VALID,24.445,VALID,237.0,VALID,1.009,
2017-09-05, 10:10:06,VALID,919.0,VALID,0.0,VALID,82.315,VALID,286.821,VALID,24.249,VALID,202.0,VALID,0.732,
2017-09-05, 10:11:06,VALID,919.0,VALID,0.0,VALID,82.992,VALID,267.381,VALID,24.144,VALID,222.0,VALID,1.061,
2017-09-05, 10:12:06,VALID,918.973,VALID,0.0,VALID,83.786,VALID,275.727,VALID,24.005,VALID,181.0,VALID,0.509,
2017-09-05, 10:13:06,VALID,918.976,VALID,0.0,VALID,84.911,VALID,278.205,VALID,24.003,VALID,242.0,VALID,0.416,
2017-09-05, 10:14:06,VALID,918.981,VALID,0.0,VALID,84.526,VALID,251.213,VALID,23.98,VALID,232.0,VALID,0.096,
2017-09-05, 10:15:06,VALID,918.961,VALID,0.0,VALID,84.572,VALID,229.139,VALID,24.039,VALID,201.0,VALID,0.214,
2017-09-05, 10:16:06,VALID,918.961,VALID,0.0,VALID,85.118,VALID,248.734,VALID,24.161,VALID,18.0,VALID,0.56,
2017-09-05, 10:17:06,VALID,918.957,VALID,0.0,VALID,84.47,VALID,317.405,VALID,24.239,VALID,25.0,VALID,0.746,
2017-09-05, 10:18:06,VALID,918.96,VALID,0.0,VALID,83.728,VALID,379.505,VALID,24.3,VALID,7.0,VALID,1.062,
2017-09-05, 10:19:06,VALID,918.969,VALID,0.0,VALID,83.357,VALID,376.746,VALID,24.206,VALID,19.0,VALID,1.125,
2017-09-05, 10:20:06,VALID,918.989,VALID,0.0,VALID,82.476,VALID,499.439,VALID,24.222,VALID,360.0,VALID,0.665,
2017-09-05, 10:21:06,VALID,918.999,VALID,0.0,VALID,81.493,VALID,409.403,VALID,24.27,VALID,15.0,VALID,0.031,
2017-09-05, 10:22:06,VALID,919.001,VALID,0.0,VALID,81.082,VALID,346.783,VALID,24.338,VALID,113.0,VALID,0.302,
2017-09-05, 10:23:06,VALID,919.01,VALID,0.0,VALID,81.107,VALID,315.663,VALID,24.182,VALID,137.0,VALID,0.182,
2017-09-05, 10:24:06,VALID,919.017,VALID,0.0,VALID,81.792,VALID,318.835,VALID,24.249,VALID,253.0,VALID,0.112,
2017-09-05, 10:25:06,VALID,919.006,VALID,0.0,VALID,81.267,VALID,359.584,VALID,24.369,VALID,302.0,VALID,0.446,
2017-09-05, 10:26:06,VALID,918.992,VALID,0.0,VALID,81.231,VALID,713.287,VALID,24.373,VALID,279.0,VALID,0.216,
2017-09-05, 10:27:06,VALID,918.988,VALID,0.0,VALID,80.85,VALID,764.41,VALID,24.484,VALID,325.0,VALID,0.195,
2017-09-05, 10:28:06,VALID,918.983,VALID,0.0,VALID,81.025,VALID,749.644,VALID,24.573,VALID,340.0,VALID,0.02,
2017-09-05, 10:29:06,VALID,918.978,VALID,0.0,VALID,80.168,VALID,660.16,VALID,24.695,VALID,48.0,VALID,0.284,
2017-09-05, 10:30:07,VALID,918.98,VALID,0.0,VALID,80.009,VALID,700.277,VALID,24.715,VALID,141.0,VALID,0.379,
2017-09-05, 10:31:07,VALID,918.971,VALID,0.0,VALID,80.416,VALID,516.779,VALID,24.808,VALID,241.0,VALID,0.532,
2017-09-05, 10:32:07,VALID,918.982,VALID,0.0,VALID,79.643,VALID,650.087,VALID,24.826,VALID,247.0,VALID,1.047,
2017-09-05, 10:33:07,VALID,918.956,VALID,0.0,VALID,80.889,VALID,844.617,VALID,24.728,VALID,232.0,VALID,0.237,
2017-09-05, 10:34:07,VALID,918.935,VALID,0.0,VALID,82.015,VALID,799.57,VALID,24.87,VALID,246.0,VALID,1.045,
2017-09-05, 10:35:07,VALID,918.947,VALID,0.0,VALID,81.433,VALID,643.135,VALID,25.083,VALID,92.0,VALID,1.12,
2017-09-05, 10:36:07,VALID,918.942,VALID,0.0,VALID,79.117,VALID,474.78,VALID,25.228,VALID,84.0,VALID,2.21,